Vorticity
12 10 8 7 8 8 9 11 10 9 7 9 12 9 8 12 14 12 10 9 9 8 7 6 5 5 6 7 7 8 9 9 9 9 9 8 5 4 4 6 6 7 7 5 5 4 4 5 6 8 10 10 9 10 10 10 10 10 10 10 10 10 10 11 12 12 13 11 9 8 7 8 11 13 14 11 6 4 6 9 10 11 10 9 7 9
9 11 10 8 8 7 8 9 7 7 8 8 8 8 7 8 10 11 11 10 8 7 6 6 6 6 7 9 10 9 8 7 7 7 8 7 5 4 4 5 7 6 5 5 5 5 6 7 9 10 9 8 8 8 7 8 8 9 10 10 10 10 10 10 11 12 12 10 8 7 9 11 13 14 11 8 5 5 9 10 11 11 9 6 5 6
9 12 13 9 7 7 7 10 9 7 10 10 8 8 8 8 9 10 10 9 8 8 7 6 7 7 7 8 7 6 5 4 4 4 5 5 5 5 4 4 4 4 5 6 7 8 10 10 9 7 6 6 6 6 6 7 8 9 11 11 11 12 13 13 12 11 10 8 7 8 11 13 14 12 8 5 6 9 11 11 11 11 7 3 1 1
8 12 14 8 7 9 11 15 16 11 8 9 10 9 9 9 9 11 11 8 7 9 8 7 7 7 7 6 4 5 5 4 4 4 4 4 3 2 3 4 4 7 10 10 10 11 11 9 7 4 5 5 5 5 7 8 9 10 12 12 12 13 13 13 12 11 8 7 8 9 12 14 13 10 6 5 8 11 12 10 10 11 6 0 -0 1
5 10 17 14 9 9 10 15 20 16 7 5 8 9 10 9 7 10 11 8 6 8 7 5 5 5 4 3 5 5 4 3 2 3 4 4 4 5 7 10 11 14 15 12 9 9 8 7 6 7 8 6 6 8 9 10 10 11 11 11 12 12 12 12 12 9 7 7 8 10 14 14 11 7 5 7 10 12 11 9 10 11 6 1 2 4
3 9 16 13 8 7 9 11 15 17 12 9 11 11 11 11 8 7 8 7 6 7 8 7 4 6 7 7 8 7 6 4 3 5 8 9 10 11 14 15 12 12 11 7 6 6 8 8 8 10 10 8 8 9 8 8 9 10 10 11 12 11 11 11 10 7 6 8 10 12 14 12 9 6 5 9 12 10 8 8 11 9 5 4 5 7
3 5 11 8 3 4 6 8 10 12 13 13 14 15 14 13 12 11 10 9 6 5 11 13 12 11 12 12 11 10 11 10 10 11 10 10 8 10 16 14 7 8 9 7 6 7 9 9 8 10 10 9 8 7 7 7 9 11 12 14 14 11 11 10 6 5 8 11 12 13 13 11 7 5 7 11 12 8 5 6 9 8 6 7 8 10
4 2 6 7 5 5 5 8 9 6 7 8 6 9 12 12 15 18 17 11 5 7 12 13 12 9 8 10 11 10 10 8 9 10 8 7 6 10 17 13 7 9 9 7 6 6 8 8 9 10 9 8 7 5 6 10 13 14 15 16 14 11 11 8 5 6 10 12 13 11 11 9 6 7 11 12 11 7 3 4 7 7 7 8 10 12
6 5 4 4 6 7 7 9 10 5 2 1 -0 3 7 8 11 16 19 13 4 7 10 10 13 12 8 8 8 9 8 8 9 8 7 7 6 9 13 9 7 8 8 9 8 6 9 10 9 8 7 6 6 6 10 16 16 14 15 16 14 12 11 8 5 8 11 12 12 10 9 8 6 9 12 10 9 7 3 5 7 5 4 5 8 12
4 7 5 3 2 4 7 9 10 7 4 2 3 8 9 7 7 10 14 13 7 7 5 5 8 9 7 8 9 10 7 6 7 5 5 6 6 7 8 8 8 7 10 14 11 8 9 9 7 6 6 7 6 9 15 18 14 13 14 14 13 13 11 8 7 9 11 11 11 9 7 7 8 12 12 9 8 7 4 5 6 3 1 2 4 7
4 7 6 6 4 2 5 7 6 5 6 6 4 8 11 8 6 8 11 12 13 12 5 1 2 3 5 9 14 16 9 3 3 4 6 9 11 14 15 13 10 10 14 16 11 9 8 6 5 6 7 6 7 12 16 14 12 11 12 12 11 11 10 9 9 10 11 10 10 9 7 7 9 12 12 8 8 7 5 5 4 2 0 0 2 4
4 5 6 6 5 2 3 5 6 5 6 7 3 3 8 8 6 8 9 8 9 10 6 3 6 9 10 9 13 20 17 10 8 9 10 11 12 16 17 14 12 13 15 13 9 7 6 5 6 8 7 6 8 13 13 11 10 10 9 9 9 9 9 9 9 10 11 9 9 8 7 8 9 11 12 8 7 7 5 5 4 2 1 1 3 3
4 5 4 3 5 6 4 2 5 7 7 8 6 4 5 6 6 6 8 6 6 6 5 2 4 7 9 10 12 15 14 11 9 9 10 11 10 10 12 10 11 13 11 9 7 6 6 7 8 8 6 4 7 10 11 10 8 8 8 8 9 9 10 10 10 11 11 9 8 7 7 9 9 10 12 9 7 6 5 5 3 3 3 3 5 5
7 7 6 6 9 10 5 3 5 8 6 5 6 5 5 5 3 3 7 8 6 6 7 4 2 4 6 10 12 10 10 11 9 9 9 10 9 9 10 9 10 12 8 6 5 5 8 8 7 8 5 3 6 8 9 10 9 8 8 8 8 9 9 9 9 10 11 10 9 7 7 9 8 9 11 10 8 5 3 3 2 2 4 5 7 6
5 8 9 7 10 11 8 6 5 7 8 5 2 2 5 6 5 4 5 9 9 9 11 6 1 3 5 9 12 10 9 10 8 9 8 6 7 8 9 7 9 10 7 6 5 5 9 8 7 8 5 4 5 6 7 8 9 9 9 8 8 8 9 9 8 9 10 9 9 9 8 9 9 8 9 11 12 10 6 4 4 4 6 8 7 7
4 9 11 7 8 11 10 7 2 3 8 8 3 0 1 3 7 7 5 7 9 8 12 9 2 4 6 8 13 13 10 9 8 9 9 7 7 8 8 5 6 10 10 9 7 6 8 7 6 6 6 5 5 4 5 6 6 7 8 9 9 8 9 9 9 9 9 9 9 10 9 9 9 8 8 9 11 13 11 10 9 9 9 8 7 7
7 9 9 8 10 10 7 6 4 0 2 7 6 3 4 5 8 9 6 6 8 6 10 11 7 7 8 7 10 13 12 10 10 11 12 13 12 9 8 7 7 11 14 13 10 8 7 6 5 5 6 7 6 6 6 6 6 5 5 8 9 9 9 10 10 9 9 9 9 9 9 9 9 9 8 7 9 10 11 12 11 11 10 8 6 7
6 9 13 8 6 8 5 7 11 6 1 4 7 6 7 8 7 7 8 8 10 8 8 9 6 5 10 9 7 9 11 10 10 12 11 11 13 11 9 10 10 11 12 11 10 9 7 5 4 5 6 8 9 7 7 8 8 7 5 5 7 8 8 9 10 10 9 9 9 9 9 9 9 9 8 8 8 8 9 10 10 10 10 9 8 7
1 7 14 8 3 8 8 7 7 5 6 7 9 8 7 8 7 6 9 9 9 10 10 10 6 4 8 8 4 6 9 8 8 12 10 7 9 10 10 11 12 11 10 8 8 8 8 6 4 5 7 9 9 8 7 9 10 11 9 6 5 5 6 7 9 10 10 9 9 9 9 9 8 9 9 8 8 8 8 8 8 8 8 8 9 8
1 2 5 4 5 5 5 9 5 2 9 14 11 6 4 10 12 9 9 7 7 12 13 12 9 6 6 6 5 6 6 6 9 10 10 9 8 8 9 9 10 12 12 8 7 8 8 7 6 6 7 7 8 8 7 8 10 12 12 10 9 7 6 6 7 9 10 10 9 8 8 9 8 8 8 8 9 8 8 8 7 7 7 7 8 7
4 7 5 2 5 4 6 14 12 4 5 9 8 4 4 11 12 10 11 8 8 10 7 8 11 9 4 -0 4 9 5 4 10 10 8 9 9 8 8 9 9 10 11 9 8 8 7 7 7 7 7 6 6 6 6 7 8 9 10 11 12 12 11 10 9 9 9 9 10 9 10 10 9 9 8 8 8 8 8 8 8 8 8 7 7 7
4 9 9 4 6 8 8 13 16 10 3 1 4 4 5 7 5 7 11 9 7 6 4 7 10 12 7 -1 3 11 7 4 8 11 9 6 7 9 8 10 11 10 9 8 8 8 8 7 7 8 7 6 5 5 5 6 6 7 7 7 9 10 11 12 12 12 11 10 10 10 11 11 11 10 9 9 8 7 7 7 8 8 7 7 8 7
3 7 10 10 8 6 7 12 12 7 2 1 4 5 6 4 2 5 8 7 6 4 6 7 5 10 14 8 6 10 8 8 8 10 11 7 7 9 7 8 9 8 8 8 8 9 8 8 8 7 6 5 4 5 5 5 5 6 6 5 5 6 6 8 10 12 12 12 11 10 10 10 10 10 10 9 9 8 8 7 7 7 7 7 7 7
3 7 9 9 7 4 10 13 6 1 3 4 5 7 6 3 4 5 0 1 5 3 5 8 5 8 13 10 6 3 5 11 9 7 9 9 9 10 8 6 5 4 5 7 8 9 8 9 8 6 5 4 3 4 5 5 4 5 6 6 6 5 5 5 6 7 9 10 11 11 10 9 9 9 9 9 9 9 8 8 8 8 8 8 7 7
4 6 7 7 7 9 14 12 4 2 3 2 4 7 4 1 6 6 1 2 5 2 4 7 8 11 13 12 5 -3 3 15 13 8 7 6 6 8 8 7 5 5 6 5 7 9 8 9 7 6 6 3 -0 3 7 7 5 4 5 5 6 6 6 5 5 5 6 7 8 9 8 8 9 8 8 8 9 10 10 9 9 8 9 9 9 8
6 4 3 5 7 10 15 13 8 6 1 -0 5 7 4 4 6 4 5 8 5 3 6 7 9 13 15 15 6 -5 3 16 14 10 8 4 3 5 7 9 7 7 8 6 7 8 8 8 6 6 7 5 3 6 8 8 6 5 5 5 5 6 5 5 5 5 5 5 6 6 6 6 6 7 8 8 8 8 8 9 9 9 10 10 10 10
4 4 3 4 3 3 7 7 7 6 3 1 4 6 6 7 5 1 3 6 3 4 7 4 5 8 9 13 10 2 7 15 11 6 5 4 5 6 8 9 7 6 8 7 7 8 8 7 5 5 7 8 7 6 8 8 7 5 4 4 5 5 5 6 6 6 6 6 6 6 5 5 6 6 7 7 6 5 5 5 5 7 7 7 9 10
2 3 3 3 1 -1 0 3 3 5 8 6 2 3 5 5 3 2 2 1 1 6 7 4 5 5 3 9 13 8 8 11 8 6 5 5 6 7 8 7 4 4 7 9 9 8 9 8 5 3 3 4 4 3 5 9 9 8 6 5 5 5 6 8 8 7 7 7 7 7 6 6 6 5 6 7 7 6 4 3 3 5 5 3 4 7
2 3 5 4 2 2 4 6 7 6 7 9 6 3 2 1 1 4 3 -3 -3 3 6 5 6 3 1 4 7 6 5 5 4 6 9 9 7 6 8 8 6 5 7 10 9 8 9 9 7 4 1 2 3 4 5 7 8 8 7 6 6 6 7 8 8 8 7 7 7 7 7 7 7 6 6 6 7 7 5 4 4 6 6 4 4 5
3 5 6 6 5 7 11 12 13 11 7 8 9 7 5 2 -1 1 3 -1 -3 -1 3 6 5 2 3 4 4 5 6 6 4 3 5 7 6 7 9 9 7 6 8 9 8 7 8 8 7 6 4 4 5 6 6 5 5 6 5 5 6 6 7 8 7 6 6 6 6 7 7 8 7 7 7 6 7 6 3 4 5 6 6 6 7 7
8 8 2 4 6 5 9 12 15 15 11 7 7 8 7 6 2 1 1 1 -0 -0 3 5 3 2 4 4 4 6 8 7 5 3 2 4 6 7 9 8 5 5 7 8 9 9 8 7 6 7 6 5 6 7 6 3 3 5 5 5 5 5 6 7 6 6 5 5 6 7 7 7 8 9 9 7 7 6 4 5 5 5 6 6 7 8
4 6 -2 0 5 4 5 11 17 19 14 8 6 7 7 6 4 2 2 2 2 2 3 3 2 5 7 5 5 7 8 7 7 5 4 5 6 8 8 7 5 4 5 7 8 9 8 8 7 6 5 4 5 6 5 3 3 5 5 4 4 4 5 6 7 7 7 7 8 7 7 8 8 9 10 9 9 8 7 7 6 5 6 6 6 7
-0 2 -1 -2 3 5 5 8 14 18 16 12 8 6 6 5 3 1 0 1 2 3 3 3 3 7 8 7 7 7 7 9 9 6 5 6 7 7 8 8 6 5 5 7 8 8 8 8 8 8 6 5 5 5 4 5 6 6 5 2 1 2 4 4 5 6 7 7 7 8 8 8 8 8 10 10 10 11 11 9 8 7 6 6 6 5
-1 1 1 -1 -1 0 2 4 6 11 15 18 15 10 7 5 4 3 0 1 3 3 4 5 5 7 8 8 7 6 5 7 7 6 6 6 5 6 8 7 5 4 6 8 8 8 8 7 7 7 7 6 6 5 6 7 7 5 4 2 3 5 6 6 6 6 6 5 5 7 7 7 8 8 9 9 10 10 11 10 10 9 8 7 7 6
-0 1 1 2 0 -2 -0 3 3 4 9 13 14 13 12 9 7 6 5 4 5 5 5 7 8 9 11 9 6 3 2 2 2 3 5 5 4 4 6 6 4 4 6 8 8 8 7 6 6 7 8 8 7 7 7 7 6 5 5 5 7 8 9 9 8 7 6 5 5 6 6 6 7 7 8 9 9 8 8 9 9 9 9 10 9 9
-1 1 1 2 4 3 1 1 2 3 5 6 7 8 11 13 12 12 12 11 11 12 12 11 11 11 9 7 4 2 1 1 1 3 5 6 5 5 7 6 5 7 7 7 6 7 7 6 6 7 8 8 8 8 9 8 8 8 7 7 8 9 9 8 8 8 7 6 6 6 6 6 6 6 7 8 7 7 7 8 7 8 9 9 10 11
-1 0 1 1 3 3 0 -0 2 3 3 5 7 6 6 9 9 10 12 12 13 14 13 11 9 7 5 4 2 1 1 2 3 4 6 7 6 8 10 9 7 7 6 6 7 8 9 8 7 7 8 8 8 9 9 9 9 8 8 8 8 8 7 7 7 8 7 6 6 7 6 6 6 6 7 8 8 8 7 8 7 7 7 8 9 10
0 -2 -1 -0 -0 1 1 1 3 4 3 5 6 6 5 5 4 4 5 6 7 9 9 7 5 4 3 3 1 1 4 5 5 5 6 8 11 13 9 5 5 4 5 7 9 9 11 11 9 8 8 7 7 8 8 8 9 8 8 8 8 8 8 8 8 8 7 6 7 7 7 7 6 6 7 8 7 5 5 6 6 6 6 7 8 8
1 0 -0 -0 0 2 3 3 4 5 4 3 3 5 6 7 6 6 6 7 8 7 6 4 4 4 5 6 5 5 6 6 6 7 7 9 11 7 -0 -0 3 5 6 8 8 9 11 11 8 5 4 3 4 5 6 6 6 6 7 6 6 6 7 7 8 9 8 8 7 7 8 8 6 6 8 9 7 5 3 4 6 6 5 5 6 7
1 1 0 -1 -1 1 2 3 5 7 7 4 2 5 7 9 11 11 10 9 8 6 5 4 5 6 7 8 11 11 10 9 9 9 8 7 5 0 -1 2 5 6 9 10 9 9 10 9 6 4 2 2 3 3 3 3 4 5 6 5 6 6 6 6 7 8 9 10 9 10 10 9 7 6 6 8 9 6 4 4 6 6 5 4 5 6
3 2 1 -1 -3 -2 1 2 2 6 10 7 3 3 5 7 9 9 7 6 6 6 7 8 8 8 9 11 13 14 14 13 12 11 9 7 5 4 5 7 7 9 10 8 6 6 6 4 3 2 2 4 5 5 6 7 7 8 7 7 8 8 8 9 8 9 10 10 11 12 12 13 13 10 8 9 9 7 6 7 7 6 6 6 5 5
1 -2 -2 -2 -2 -0 3 1 -1 3 7 6 5 6 5 5 8 7 3 3 6 9 11 11 11 12 14 15 15 15 15 14 12 10 8 7 6 8 9 9 10 10 7 5 5 6 5 4 4 5 6 7 8 8 8 8 8 8 7 8 9 9 9 9 10 10 11 10 11 11 11 12 14 14 12 12 11 9 9 9 9 8 8 7 7 8
4 2 -0 -2 -1 2 4 2 1 3 5 5 5 7 6 5 7 7 3 3 6 9 11 13 14 15 15 13 11 11 10 8 8 7 6 6 7 9 10 10 9 6 4 5 8 7 5 6 7 8 8 8 8 8 8 8 8 8 8 8 8 8 8 8 8 9 10 10 10 10 9 10 11 11 12 12 11 10 10 10 11 12 11 11 11 9
4 3 2 2 2 2 3 3 2 2 4 6 5 4 4 4 6 6 4 4 5 5 9 13 14 14 12 6 3 3 3 3 6 6 5 7 8 9 9 8 6 6 7 7 7 5 5 6 7 7 7 8 8 8 8 9 9 8 8 7 7 8 9 9 9 9 9 9 9 10 10 10 10 10 10 10 10 10 11 10 11 13 13 12 9 4
5 4 6 9 8 5 4 4 2 2 3 6 7 6 4 4 6 7 5 4 4 4 8 12 13 11 8 3 1 2 2 3 6 5 4 6 8 8 8 7 7 7 7 6 5 6 6 5 5 7 8 8 7 7 7 7 7 7 6 6 6 7 8 9 10 10 10 10 9 10 11 12 13 13 12 11 11 13 13 11 10 11 12 12 9 6
9 9 9 10 10 8 7 6 5 5 5 6 7 6 5 4 6 8 7 6 5 4 7 13 15 12 9 7 7 9 10 11 10 7 6 8 8 8 8 7 6 5 5 6 7 5 4 5 6 8 7 5 4 5 6 7 8 8 7 6 6 7 7 9 10 10 10 11 10 9 10 11 12 13 13 12 12 13 13 10 7 8 10 10 8 7
9 9 9 9 9 9 9 8 8 7 7 7 7 5 5 5 5 6 6 5 3 2 6 12 14 11 11 14 14 14 14 13 9 6 6 8 8 7 6 5 5 6 7 7 6 4 5 8 8 6 3 2 4 5 7 9 10 10 9 7 7 7 8 8 9 9 9 10 9 9 10 10 10 12 12 13 14 13 12 9 5 5 7 8 7 7
7 7 7 7 8 7 8 10 12 13 12 10 8 7 6 6 6 7 5 3 6 8 10 12 11 8 8 12 14 13 10 7 5 5 7 7 6 5 5 5 5 7 7 5 2 3 8 9 5 3 3 4 6 7 9 11 12 12 11 9 7 7 8 9 11 10 9 8 8 7 7 8 8 9 9 11 12 12 12 12 10 8 8 9 10 9
9 9 9 9 9 9 11 11 12 13 12 9 6 5 4 5 7 7 4 4 10 14 14 13 11 7 7 9 9 6 3 0 1 3 4 6 7 6 5 5 6 7 6 3 1 4 7 5 1 3 5 5 5 8 11 13 15 14 13 11 9 8 8 8 11 12 10 8 7 6 5 5 4 4 4 4 4 5 6 7 9 11 10 9 11 11
7 6 6 6 6 6 5 2 -0 0 2 3 2 2 3 5 4 3 4 8 12 16 18 17 11 7 8 9 7 4 2 2 4 6 6 6 6 5 4 5 7 8 7 4 1 1 2 1 -0 3 6 5 4 7 10 13 14 13 13 13 13 11 9 6 8 11 12 9 8 7 6 4 3 2 1 0 -1 -1 1 2 4 9 11 10 10 11
3 3 2 1 2 3 1 -2 -1 4 7 8 6 3 5 7 5 5 12 13 8 10 18 19 13 11 13 13 11 9 6 6 8 6 3 2 3 4 6 6 7 10 9 6 2 -2 -3 -3 -2 1 6 7 4 4 7 12 13 12 12 13 13 13 12 9 7 11 13 11 10 11 9 8 7 5 4 4 3 2 3 4 7 11 14 14 13 14
Height
5799 5800 5800 5799 5799 5799 5799 5799 5798 5798 5798 5797 5797 5797 5797 5798 5798 5798 5798 5798 5799 5799 5800 5800 5799 5799 5799 5799 5798 5798 5797 5797 5797 5797 5796 5796 5796 5796 5796 5796 5795 5795 5794 5794 5793 5792 5792 5791 5791 5790 5789 5788 5787 5786 5785 5784 5783 5782 5781 5780 5779 5778 5776 5775 5775 5774 5772 5771 5770 5768 5767 5766 5764 5763 5762 5761 5760 5758 5756 5754 5753 5751 5750 5749 5747 5745
5801 5801 5801 5800 5800 5800 5800 5800 5799 5799 5799 5798 5798 5798 5798 5799 5799 5799 5800 5800 5800 5801 5801 5801 5800 5800 5800 5800 5799 5798 5798 5797 5797 5797 5796 5796 5796 5796 5796 5796 5795 5795 5794 5794 5793 5792 5791 5791 5790 5789 5788 5788 5787 5786 5784 5783 5783 5781 5780 5779 5778 5777 5776 5774 5773 5772 5771 5770 5768 5767 5766 5764 5763 5762 5761 5760 5759 5758 5756 5754 5752 5751 5749 5748 5747 5745
5802 5802 5802 5801 5801 5801 5801 5801 5800 5800 5800 5799 5799 5799 5799 5799 5799 5800 5800 5801 5802 5802 5802 5802 5801 5801 5801 5800 5799 5799 5798 5798 5797 5797 5796 5796 5796 5796 5796 5796 5795 5795 5794 5794 5793 5792 5791 5790 5789 5789 5788 5787 5786 5785 5784 5783 5782 5781 5779 5778 5777 5776 5775 5773 5772 5771 5770 5769 5767 5766 5765 5763 5762 5761 5760 5760 5759 5757 5755 5753 5752 5750 5749 5748 5746 5744
5802 5803 5803 5802 5802 5802 5801 5801 5801 5801 5800 5800 5800 5800 5800 5800 5800 5801 5801 5801 5802 5803 5803 5802 5802 5801 5801 5800 5800 5799 5799 5798 5798 5798 5797 5796 5796 5796 5796 5796 5795 5795 5794 5793 5792 5791 5790 5790 5789 5788 5787 5786 5785 5784 5783 5782 5781 5780 5778 5777 5776 5774 5773 5772 5771 5770 5769 5768 5767 5765 5764 5763 5762 5761 5760 5759 5758 5756 5755 5753 5752 5750 5749 5748 5746 5744
5803 5803 5803 5803 5802 5802 5802 5801 5801 5801 5801 5801 5801 5802 5802 5801 5801 5802 5802 5802 5802 5803 5803 5802 5802 5801 5801 5800 5800 5799 5799 5799 5798 5798 5797 5796 5795 5795 5796 5796 5795 5794 5794 5792 5792 5791 5790 5790 5789 5788 5787 5786 5785 5784 5782 5781 5780 5779 5777 5776 5775 5773 5772 5771 5770 5769 5768 5767 5766 5765 5764 5762 5761 5761 5759 5758 5757 5755 5754 5753 5751 5750 5749 5747 5745 5743
5804 5804 5804 5804 5803 5803 5802 5802 5801 5802 5802 5802 5802 5802 5802 5802 5802 5802 5803 5803 5803 5803 5803 5802 5802 5802 5801 5801 5800 5800 5799 5799 5798 5797 5796 5796 5795 5795 5796 5796 5794 5794 5793 5792 5791 5791 5790 5790 5788 5787 5786 5786 5784 5783 5781 5780 5779 5778 5777 5775 5774 5773 5772 5771 5770 5769 5768 5767 5765 5764 5763 5762 5761 5760 5759 5757 5756 5755 5754 5753 5751 5750 5748 5747 5745 5743
5805 5805 5806 5805 5805 5804 5804 5803 5803 5803 5803 5803 5803 5803 5803 5803 5803 5803 5803 5803 5803 5803 5803 5803 5802 5801 5801 5801 5801 5800 5799 5799 5798 5797 5797 5796 5795 5795 5796 5796 5794 5794 5793 5792 5791 5790 5790 5789 5788 5787 5786 5785 5784 5782 5781 5780 5778 5777 5776 5774 5773 5772 5771 5770 5769 5768 5767 5766 5765 5764 5763 5762 5761 5760 5759 5757 5756 5755 5754 5753 5751 5749 5748 5746 5744 5742
5807 5807 5807 5807 5806 5806 5806 5805 5805 5804 5804 5804 5804 5805 5805 5805 5804 5804 5804 5804 5804 5804 5804 5803 5802 5802 5801 5801 5801 5800 5800 5799 5798 5798 5797 5796 5796 5796 5796 5795 5795 5794 5793 5792 5791 5790 5790 5789 5787 5786 5785 5784 5783 5782 5780 5779 5777 5776 5775 5774 5773 5772 5771 5770 5769 5769 5767 5766 5765 5764 5763 5762 5761 5760 5759 5758 5757 5755 5754 5752 5751 5749 5748 5746 5744 5742
5807 5807 5807 5807 5807 5807 5807 5807 5806 5805 5804 5805 5805 5806 5806 5806 5805 5805 5805 5805 5804 5804 5804 5803 5803 5803 5803 5802 5802 5801 5800 5800 5799 5798 5798 5797 5796 5796 5796 5796 5795 5794 5793 5792 5791 5790 5789 5788 5787 5786 5785 5784 5783 5782 5780 5779 5777 5776 5775 5774 5773 5772 5771 5771 5770 5769 5767 5766 5765 5764 5763 5762 5761 5760 5759 5757 5756 5755 5754 5752 5750 5749 5747 5745 5744 5742
5807 5807 5808 5808 5807 5807 5807 5808 5807 5806 5806 5805 5806 5806 5806 5806 5806 5806 5805 5805 5805 5805 5805 5804 5804 5804 5804 5803 5803 5802 5801 5800 5800 5799 5798 5797 5797 5796 5796 5796 5795 5794 5793 5792 5791 5790 5789 5788 5787 5787 5785 5784 5783 5782 5780 5779 5777 5776 5775 5774 5774 5773 5772 5771 5770 5768 5767 5766 5765 5764 5763 5762 5761 5760 5758 5757 5756 5754 5753 5752 5750 5749 5747 5745 5743 5741
5807 5807 5808 5808 5807 5807 5808 5808 5808 5808 5807 5806 5806 5806 5806 5806 5806 5806 5806 5806 5806 5806 5806 5805 5805 5805 5804 5804 5803 5803 5802 5801 5800 5799 5798 5798 5797 5797 5796 5796 5795 5794 5793 5792 5791 5790 5789 5789 5788 5787 5785 5784 5783 5781 5780 5779 5778 5776 5775 5774 5774 5773 5771 5770 5769 5768 5767 5766 5765 5764 5763 5762 5760 5759 5758 5757 5755 5754 5753 5751 5750 5748 5747 5745 5743 5741
5807 5808 5808 5809 5808 5808 5808 5808 5808 5808 5808 5807 5806 5806 5806 5807 5807 5807 5807 5807 5807 5806 5806 5805 5805 5805 5804 5804 5803 5803 5802 5801 5800 5800 5799 5798 5797 5796 5796 5795 5794 5794 5793 5792 5791 5791 5790 5789 5788 5787 5786 5784 5783 5782 5780 5779 5778 5777 5776 5775 5774 5773 5772 5770 5769 5768 5767 5765 5764 5764 5763 5762 5760 5759 5758 5757 5755 5754 5752 5751 5749 5748 5746 5744 5743 5740
5808 5808 5808 5808 5809 5808 5808 5808 5808 5808 5808 5808 5807 5807 5807 5807 5807 5807 5807 5807 5807 5806 5806 5806 5805 5805 5804 5804 5803 5803 5802 5801 5801 5800 5799 5798 5797 5796 5795 5795 5794 5794 5793 5792 5792 5791 5790 5789 5788 5787 5786 5785 5784 5782 5781 5779 5778 5777 5776 5775 5774 5773 5772 5771 5769 5768 5767 5765 5764 5763 5763 5761 5760 5759 5757 5756 5755 5754 5752 5750 5749 5747 5746 5744 5742 5740
5807 5808 5808 5808 5809 5808 5808 5808 5808 5808 5809 5808 5808 5808 5808 5808 5808 5807 5807 5807 5807 5807 5806 5806 5806 5805 5805 5804 5803 5803 5802 5801 5800 5799 5799 5798 5797 5797 5796 5795 5795 5794 5793 5793 5792 5792 5791 5790 5789 5788 5787 5785 5784 5783 5781 5780 5778 5778 5777 5776 5774 5773 5772 5771 5769 5768 5767 5766 5765 5764 5763 5761 5760 5759 5757 5756 5755 5753 5752 5750 5748 5747 5745 5743 5741 5739
5807 5807 5808 5808 5808 5808 5808 5808 5809 5808 5809 5808 5808 5808 5809 5809 5808 5808 5808 5808 5808 5807 5807 5807 5806 5806 5805 5805 5804 5803 5802 5801 5800 5799 5799 5798 5798 5797 5796 5795 5795 5794 5794 5793 5793 5792 5791 5790 5789 5788 5787 5786 5784 5783 5782 5780 5779 5778 5777 5776 5774 5773 5772 5770 5769 5768 5767 5766 5765 5764 5763 5761 5760 5758 5757 5755 5754 5753 5751 5749 5748 5746 5744 5742 5740 5738
5807 5807 5808 5808 5808 5808 5808 5809 5809 5809 5809 5809 5809 5809 5809 5809 5809 5809 5809 5809 5808 5808 5808 5807 5807 5806 5806 5805 5805 5804 5803 5802 5801 5800 5799 5799 5798 5797 5796 5796 5795 5794 5794 5793 5793 5792 5791 5790 5789 5788 5787 5786 5785 5783 5782 5780 5779 5778 5777 5776 5775 5773 5772 5770 5769 5768 5767 5766 5765 5764 5763 5761 5760 5758 5757 5755 5754 5752 5750 5749 5747 5745 5743 5742 5740 5738
5807 5807 5808 5808 5808 5808 5808 5808 5808 5809 5809 5809 5809 5809 5809 5810 5810 5809 5809 5809 5809 5809 5809 5808 5808 5807 5806 5805 5805 5804 5803 5802 5801 5801 5800 5799 5799 5798 5797 5796 5795 5795 5794 5793 5793 5792 5791 5790 5789 5788 5787 5786 5785 5783 5782 5780 5779 5778 5777 5776 5775 5773 5772 5770 5769 5768 5767 5766 5765 5764 5762 5761 5760 5758 5757 5755 5753 5752 5750 5748 5746 5745 5743 5741 5739 5737
5807 5807 5808 5808 5808 5808 5808 5808 5808 5809 5809 5809 5809 5810 5810 5810 5810 5810 5810 5810 5810 5809 5809 5809 5808 5808 5807 5806 5806 5805 5804 5803 5802 5801 5801 5800 5799 5798 5797 5796 5796 5796 5795 5794 5793 5792 5791 5790 5789 5788 5787 5786 5785 5783 5782 5780 5779 5778 5777 5776 5775 5774 5772 5771 5770 5768 5767 5766 5765 5763 5762 5761 5759 5758 5756 5755 5753 5751 5749 5748 5746 5744 5742 5740 5738 5736
5807 5807 5807 5808 5808 5809 5809 5808 5809 5809 5809 5809 5810 5810 5810 5810 5810 5810 5810 5810 5810 5810 5810 5809 5809 5808 5808 5807 5807 5806 5805 5804 5803 5802 5801 5800 5800 5799 5798 5797 5797 5796 5795 5794 5793 5792 5791 5790 5789 5789 5788 5786 5785 5784 5782 5781 5780 5778 5777 5776 5775 5774 5772 5771 5770 5769 5767 5766 5765 5763 5762 5760 5759 5757 5756 5754 5753 5751 5749 5747 5745 5743 5741 5739 5737 5735
5806 5807 5807 5807 5807 5808 5809 5809 5809 5809 5809 5809 5810 5810 5810 5810 5810 5811 5811 5811 5810 5810 5810 5810 5809 5809 5808 5807 5807 5806 5805 5804 5803 5803 5802 5801 5801 5800 5799 5798 5797 5797 5796 5794 5793 5792 5792 5791 5790 5789 5788 5786 5785 5784 5782 5781 5780 5779 5777 5776 5775 5774 5772 5771 5770 5768 5767 5766 5765 5763 5762 5760 5759 5757 5756 5754 5752 5750 5749 5747 5745 5743 5741 5739 5737 5734
5805 5806 5806 5806 5806 5807 5808 5808 5808 5808 5808 5808 5809 5809 5810 5810 5810 5811 5811 5811 5811 5811 5810 5810 5810 5809 5808 5808 5807 5806 5805 5804 5804 5803 5803 5802 5802 5801 5800 5799 5798 5797 5796 5794 5793 5792 5792 5791 5790 5789 5788 5787 5785 5784 5783 5782 5780 5779 5778 5776 5775 5774 5772 5771 5770 5768 5767 5766 5764 5763 5762 5760 5759 5757 5755 5754 5752 5750 5748 5747 5745 5743 5741 5739 5736 5734
5804 5804 5805 5805 5805 5807 5807 5807 5808 5807 5807 5808 5808 5808 5809 5810 5810 5810 5810 5811 5811 5811 5811 5810 5810 5810 5809 5809 5808 5807 5806 5805 5804 5804 5803 5803 5803 5801 5800 5799 5798 5797 5795 5794 5793 5792 5791 5791 5790 5789 5788 5787 5786 5784 5783 5782 5781 5779 5778 5776 5775 5774 5772 5771 5769 5768 5767 5765 5764 5763 5761 5760 5759 5757 5755 5753 5751 5749 5748 5746 5744 5743 5741 5738 5736 5734
5802 5803 5804 5804 5805 5806 5806 5806 5806 5806 5806 5807 5807 5807 5808 5809 5809 5809 5810 5810 5810 5810 5811 5810 5810 5810 5810 5809 5809 5808 5807 5807 5806 5805 5805 5804 5803 5802 5800 5799 5798 5797 5795 5794 5793 5792 5791 5791 5790 5789 5788 5787 5786 5785 5783 5782 5781 5779 5778 5777 5775 5773 5772 5771 5769 5768 5766 5765 5763 5762 5761 5759 5758 5756 5754 5752 5750 5749 5747 5745 5744 5742 5740 5738 5736 5733
5801 5801 5802 5803 5804 5804 5804 5805 5805 5805 5805 5806 5806 5807 5807 5808 5808 5809 5809 5809 5809 5810 5810 5810 5810 5810 5810 5810 5809 5808 5807 5807 5807 5806 5806 5805 5803 5802 5801 5799 5798 5797 5795 5794 5793 5792 5791 5791 5790 5789 5788 5787 5786 5785 5783 5782 5781 5779 5778 5777 5775 5773 5772 5770 5769 5767 5766 5764 5763 5761 5760 5758 5757 5755 5753 5751 5749 5748 5746 5744 5743 5741 5739 5737 5735 5733
5800 5800 5801 5802 5802 5802 5803 5803 5804 5804 5804 5805 5806 5806 5807 5807 5807 5808 5808 5808 5808 5809 5809 5809 5809 5810 5810 5809 5809 5808 5807 5807 5807 5806 5805 5804 5803 5802 5801 5799 5798 5797 5795 5794 5793 5792 5792 5791 5790 5789 5788 5787 5786 5784 5783 5782 5780 5779 5778 5776 5775 5773 5771 5770 5768 5767 5765 5764 5762 5760 5759 5757 5756 5754 5752 5750 5748 5746 5745 5743 5741 5740 5738 5736 5734 5731
5798 5799 5799 5800 5801 5801 5802 5802 5803 5803 5804 5804 5805 5806 5806 5806 5806 5807 5807 5807 5807 5808 5808 5808 5808 5809 5809 5808 5808 5808 5807 5806 5806 5805 5805 5804 5803 5802 5800 5799 5797 5796 5795 5794 5793 5792 5791 5791 5790 5789 5788 5787 5785 5784 5783 5782 5780 5779 5777 5776 5775 5773 5771 5770 5768 5766 5765 5763 5761 5759 5758 5756 5754 5753 5751 5749 5747 5745 5743 5742 5740 5738 5736 5734 5732 5730
5797 5797 5798 5798 5799 5800 5800 5801 5801 5802 5802 5803 5804 5804 5805 5805 5806 5806 5806 5807 5807 5807 5807 5807 5808 5808 5808 5807 5807 5807 5806 5806 5805 5805 5804 5803 5802 5801 5800 5798 5797 5796 5795 5794 5793 5792 5791 5790 5789 5788 5787 5786 5785 5784 5782 5781 5780 5778 5777 5776 5774 5772 5771 5769 5767 5766 5764 5762 5760 5758 5757 5755 5753 5752 5750 5748 5746 5744 5742 5741 5739 5736 5734 5732 5731 5729
5795 5795 5796 5797 5798 5798 5799 5799 5799 5800 5800 5801 5802 5803 5804 5804 5805 5805 5806 5806 5806 5807 5807 5807 5807 5807 5807 5807 5807 5807 5806 5805 5804 5804 5803 5801 5800 5799 5799 5798 5797 5796 5795 5793 5792 5791 5790 5789 5788 5787 5786 5785 5784 5783 5781 5780 5779 5778 5776 5775 5773 5772 5770 5768 5767 5765 5763 5761 5760 5758 5756 5754 5752 5750 5748 5747 5745 5743 5741 5739 5737 5735 5733 5731 5729 5727
5792 5793 5794 5795 5796 5796 5797 5797 5798 5798 5799 5799 5800 5801 5802 5803 5804 5804 5805 5805 5805 5806 5806 5806 5805 5806 5805 5805 5805 5806 5806 5805 5804 5802 5801 5800 5799 5798 5797 5797 5796 5795 5794 5792 5791 5790 5789 5788 5787 5786 5785 5784 5783 5781 5780 5779 5777 5776 5775 5774 5772 5771 5769 5767 5766 5764 5762 5760 5758 5757 5755 5753 5751 5750 5747 5745 5744 5742 5739 5737 5736 5734 5731 5729 5728 5726
5790 5791 5792 5793 5794 5794 5795 5795 5796 5796 5797 5797 5798 5799 5800 5801 5802 5803 5803 5804 5803 5804 5804 5804 5804 5804 5804 5804 5804 5804 5804 5803 5803 5801 5800 5798 5798 5797 5796 5795 5795 5794 5793 5791 5790 5789 5788 5787 5786 5785 5784 5783 5781 5780 5779 5777 5776 5775 5774 5772 5771 5769 5768 5766 5764 5763 5761 5759 5757 5755 5754 5752 5750 5748 5746 5744 5742 5740 5738 5736 5734 5732 5730 5728 5726 5724
5788 5789 5790 5791 5792 5792 5793 5794 5794 5794 5795 5795 5796 5797 5798 5799 5800 5801 5801 5802 5802 5802 5802 5802 5803 5803 5803 5803 5802 5802 5801 5801 5800 5799 5798 5797 5796 5795 5794 5793 5793 5792 5791 5790 5789 5788 5786 5785 5784 5783 5782 5781 5780 5779 5777 5776 5775 5773 5772 5771 5769 5768 5766 5764 5763 5761 5760 5758 5756 5754 5752 5751 5749 5747 5745 5743 5741 5739 5737 5734 5732 5730 5728 5726 5724 5722
5785 5787 5788 5789 5790 5790 5791 5791 5791 5792 5792 5793 5794 5795 5796 5797 5798 5799 5799 5800 5800 5800 5800 5801 5801 5801 5801 5801 5801 5800 5800 5799 5798 5797 5796 5795 5794 5793 5792 5791 5791 5790 5789 5789 5787 5786 5785 5784 5783 5782 5781 5779 5778 5777 5776 5774 5773 5772 5771 5769 5767 5766 5764 5763 5761 5760 5758 5756 5754 5752 5751 5749 5747 5745 5744 5742 5740 5738 5736 5733 5731 5729 5727 5724 5722 5720
5783 5784 5785 5786 5788 5788 5789 5789 5789 5789 5789 5790 5792 5794 5795 5795 5796 5796 5797 5798 5798 5799 5799 5799 5799 5799 5799 5799 5799 5798 5798 5797 5796 5795 5794 5793 5792 5791 5791 5790 5789 5788 5787 5786 5785 5784 5783 5782 5781 5780 5779 5778 5777 5776 5774 5773 5772 5770 5769 5767 5766 5764 5763 5761 5759 5758 5756 5754 5752 5750 5749 5747 5745 5744 5742 5740 5738 5736 5734 5732 5729 5727 5725 5722 5720 5718
5780 5781 5783 5784 5785 5786 5787 5787 5787 5787 5787 5789 5791 5792 5793 5793 5793 5794 5795 5795 5796 5797 5797 5798 5798 5797 5797 5797 5796 5796 5796 5795 5794 5794 5793 5792 5790 5790 5789 5788 5787 5786 5785 5784 5783 5782 5782 5781 5780 5779 5777 5776 5775 5774 5773 5771 5770 5768 5767 5765 5764 5762 5761 5759 5757 5756 5754 5752 5750 5748 5746 5744 5743 5741 5739 5737 5735 5734 5732 5730 5728 5726 5723 5721 5719 5716
5777 5778 5780 5781 5782 5784 5784 5784 5784 5785 5786 5788 5789 5789 5790 5791 5791 5791 5792 5793 5794 5795 5795 5796 5796 5795 5795 5794 5794 5794 5793 5793 5792 5792 5791 5790 5789 5788 5787 5786 5785 5784 5783 5782 5781 5780 5780 5779 5778 5777 5776 5775 5773 5772 5771 5769 5768 5766 5764 5763 5761 5760 5758 5756 5755 5753 5751 5749 5747 5745 5743 5741 5739 5738 5737 5735 5733 5731 5729 5728 5726 5724 5722 5719 5716 5714
5774 5775 5776 5778 5779 5781 5782 5782 5782 5783 5784 5786 5786 5787 5788 5788 5788 5789 5789 5790 5791 5792 5792 5793 5793 5792 5792 5792 5791 5791 5790 5790 5789 5789 5788 5788 5787 5787 5785 5784 5783 5782 5781 5780 5779 5778 5778 5777 5776 5775 5774 5773 5772 5770 5769 5767 5765 5764 5762 5760 5758 5756 5754 5753 5751 5750 5748 5746 5744 5742 5740 5738 5736 5734 5733 5732 5730 5728 5727 5725 5723 5721 5719 5716 5714 5712
5771 5772 5773 5775 5776 5778 5779 5780 5780 5780 5782 5784 5785 5785 5785 5785 5785 5786 5787 5787 5788 5789 5790 5790 5790 5790 5790 5789 5789 5788 5787 5787 5787 5786 5786 5786 5786 5784 5783 5781 5780 5780 5779 5778 5778 5777 5776 5775 5774 5773 5772 5770 5769 5768 5766 5764 5762 5760 5759 5757 5755 5753 5751 5750 5748 5747 5745 5743 5741 5739 5737 5735 5733 5731 5730 5728 5727 5725 5724 5722 5720 5718 5716 5714 5711 5709
5767 5768 5770 5771 5772 5774 5776 5777 5777 5778 5780 5783 5783 5782 5782 5783 5783 5783 5784 5785 5786 5787 5787 5787 5787 5787 5787 5787 5786 5786 5785 5784 5784 5783 5783 5783 5783 5782 5780 5779 5778 5777 5776 5775 5774 5774 5773 5772 5771 5770 5769 5767 5766 5764 5763 5761 5759 5758 5756 5754 5752 5750 5748 5746 5745 5744 5742 5740 5738 5736 5734 5731 5729 5727 5726 5724 5722 5721 5720 5718 5717 5715 5713 5711 5709 5706
5762 5764 5766 5767 5767 5769 5772 5774 5775 5777 5779 5780 5780 5780 5780 5780 5780 5780 5781 5783 5784 5784 5784 5784 5784 5784 5784 5784 5784 5783 5783 5782 5782 5781 5780 5780 5779 5778 5777 5776 5775 5774 5773 5772 5771 5770 5770 5769 5768 5767 5766 5764 5763 5761 5760 5758 5756 5755 5753 5751 5749 5747 5745 5743 5742 5740 5739 5737 5734 5732 5730 5728 5726 5724 5723 5721 5719 5717 5716 5714 5713 5711 5709 5707 5706 5703
5758 5759 5761 5762 5763 5766 5768 5770 5771 5774 5776 5777 5777 5778 5778 5777 5777 5778 5779 5780 5780 5780 5779 5780 5780 5780 5781 5781 5781 5780 5780 5780 5779 5779 5778 5777 5776 5775 5774 5774 5773 5772 5771 5770 5769 5768 5767 5766 5765 5764 5763 5761 5759 5758 5756 5755 5753 5752 5750 5748 5746 5744 5742 5740 5739 5737 5736 5734 5731 5729 5727 5725 5723 5721 5719 5719 5717 5715 5712 5710 5709 5708 5706 5703 5702 5700
5754 5755 5756 5757 5760 5762 5764 5766 5768 5770 5773 5774 5775 5775 5775 5775 5775 5776 5776 5776 5775 5775 5776 5776 5776 5776 5776 5776 5776 5776 5776 5776 5776 5776 5775 5774 5774 5773 5772 5772 5771 5770 5769 5768 5767 5766 5764 5763 5762 5761 5759 5758 5756 5754 5753 5751 5750 5749 5747 5745 5744 5742 5740 5738 5736 5734 5732 5731 5729 5726 5725 5723 5721 5718 5716 5715 5713 5711 5709 5706 5705 5703 5702 5700 5698 5696
5749 5750 5752 5754 5756 5758 5759 5761 5763 5766 5770 5773 5772 5772 5772 5773 5773 5774 5773 5772 5772 5773 5772 5772 5772 5772 5772 5771 5772 5772 5772 5772 5773 5773 5773 5772 5771 5770 5770 5769 5768 5767 5766 5764 5763 5762 5761 5760 5759 5758 5756 5755 5753 5752 5750 5748 5747 5745 5744 5742 5740 5738 5736 5735 5733 5731 5729 5727 5726 5724 5721 5720 5718 5715 5713 5711 5709 5707 5705 5703 5701 5700 5698 5696 5693 5692
5746 5747 5748 5750 5752 5754 5755 5756 5759 5763 5768 5769 5768 5768 5769 5770 5771 5771 5771 5770 5770 5770 5769 5769 5769 5769 5768 5768 5768 5768 5768 5769 5769 5769 5769 5768 5767 5767 5766 5765 5764 5763 5761 5760 5759 5758 5757 5756 5755 5754 5753 5752 5750 5749 5747 5745 5743 5742 5740 5738 5736 5734 5733 5731 5729 5727 5725 5724 5722 5720 5718 5716 5714 5712 5710 5708 5706 5703 5701 5699 5698 5696 5694 5691 5689 5687
5741 5742 5743 5745 5748 5750 5750 5752 5756 5760 5763 5764 5764 5764 5766 5767 5767 5768 5768 5768 5767 5767 5766 5766 5766 5766 5766 5766 5765 5765 5765 5766 5765 5765 5765 5764 5763 5762 5762 5761 5759 5758 5757 5756 5755 5754 5753 5752 5750 5749 5748 5747 5746 5744 5742 5741 5739 5737 5735 5733 5732 5730 5729 5727 5726 5724 5722 5720 5718 5716 5714 5712 5710 5708 5706 5703 5702 5700 5698 5696 5694 5693 5690 5687 5684 5682
5736 5737 5739 5741 5744 5746 5747 5749 5752 5755 5757 5759 5760 5761 5761 5762 5763 5764 5765 5765 5764 5764 5763 5763 5763 5763 5763 5763 5763 5762 5762 5762 5762 5761 5761 5760 5759 5758 5757 5756 5756 5755 5753 5752 5751 5750 5749 5748 5747 5745 5744 5742 5740 5739 5737 5735 5733 5732 5730 5728 5727 5725 5724 5723 5721 5719 5718 5716 5714 5712 5710 5708 5706 5704 5702 5699 5697 5695 5693 5691 5690 5688 5686 5683 5680 5678
5732 5734 5736 5738 5739 5741 5743 5745 5747 5750 5752 5754 5755 5756 5757 5758 5759 5759 5760 5761 5761 5761 5760 5759 5759 5759 5759 5759 5759 5759 5759 5759 5759 5758 5758 5757 5756 5755 5754 5753 5752 5751 5750 5749 5748 5747 5746 5745 5744 5742 5741 5739 5737 5735 5733 5731 5729 5727 5725 5723 5721 5719 5718 5716 5715 5713 5712 5710 5709 5707 5705 5704 5702 5700 5697 5695 5693 5691 5689 5687 5685 5684 5682 5679 5676 5675
5728 5730 5732 5734 5735 5737 5739 5741 5743 5746 5748 5749 5751 5752 5752 5753 5754 5755 5755 5756 5757 5757 5757 5756 5756 5756 5756 5756 5756 5756 5756 5755 5755 5755 5754 5753 5752 5751 5751 5750 5749 5747 5746 5745 5745 5744 5743 5743 5742 5740 5738 5736 5735 5733 5730 5728 5726 5723 5721 5719 5717 5715 5713 5710 5709 5707 5705 5704 5703 5701 5700 5698 5697 5695 5693 5691 5689 5687 5685 5683 5681 5679 5677 5675 5672 5671
5724 5726 5727 5729 5731 5734 5736 5737 5739 5741 5743 5745 5746 5747 5748 5749 5749 5750 5751 5751 5752 5752 5753 5753 5753 5753 5752 5752 5752 5752 5752 5752 5752 5751 5751 5750 5749 5748 5747 5746 5745 5744 5743 5742 5742 5741 5741 5740 5738 5737 5735 5733 5731 5728 5726 5724 5721 5719 5717 5714 5712 5710 5708 5706 5704 5701 5699 5698 5696 5695 5693 5692 5690 5689 5687 5686 5684 5682 5680 5679 5676 5674 5672 5670 5668 5667
5719 5721 5723 5725 5728 5730 5732 5733 5735 5737 5738 5740 5742 5743 5743 5744 5744 5745 5746 5747 5748 5748 5748 5748 5749 5749 5749 5749 5749 5749 5749 5749 5749 5748 5747 5746 5745 5744 5743 5742 5741 5740 5739 5739 5738 5738 5737 5736 5734 5732 5730 5728 5726 5724 5721 5719 5716 5714 5712 5710 5708 5705 5703 5701 5699 5696 5694 5692 5690 5689 5687 5685 5684 5682 5680 5679 5678 5676 5675 5673 5672 5669 5666 5664 5663 5661
5714 5716 5718 5721 5724 5726 5728 5730 5731 5732 5734 5735 5737 5738 5739 5739 5740 5741 5742 5743 5743 5744 5744 5744 5745 5745 5745 5746 5746 5746 5746 5746 5745 5744 5743 5742 5741 5740 5740 5738 5737 5737 5736 5735 5734 5733 5732 5731 5729 5727 5726 5724 5722 5719 5717 5714 5712 5710 5707 5705 5703 5701 5699 5696 5694 5692 5690 5687 5685 5683 5682 5680 5678 5676 5673 5671 5670 5669 5668 5667 5665 5663 5661 5658 5657 5655
5709 5711 5714 5717 5719 5722 5724 5725 5727 5728 5729 5730 5732 5733 5734 5735 5736 5737 5738 5738 5739 5739 5739 5739 5740 5740 5741 5742 5742 5742 5741 5741 5741 5740 5739 5738 5737 5736 5735 5734 5733 5732 5732 5731 5730 5728 5727 5726 5725 5723 5721 5719 5717 5714 5712 5709 5707 5705 5703 5700 5698 5696 5693 5691 5689 5687 5685 5683 5680 5678 5676 5674 5672 5670 5667 5665 5663 5661 5660 5658 5657 5656 5654 5652 5650 5649